Year,Month,Day,Hour,Minute,Value (Times are PST for temperature in C)
2015,06,28,00,00,20.50
2015,06,28,00,01,20.40
2015,06,28,00,02,20.40
2015,06,28,00,03,20.40
2015,06,28,00,04,20.40
2015,06,28,00,05,20.30
2015,06,28,00,06,20.30
2015,06,28,00,07,20.30
2015,06,28,00,08,20.30
2015,06,28,00,09,20.30
2015,06,28,00,10,20.20
2015,06,28,00,11,20.20
2015,06,28,00,12,20.20
2015,06,28,00,13,20.20
2015,06,28,00,14,20.20
2015,06,28,00,15,20.20
2015,06,28,00,16,20.10
2015,06,28,00,17,20.10
2015,06,28,00,18,20.10
2015,06,28,00,19,20.10
2015,06,28,00,20,20.00
2015,06,28,00,21,20.00
2015,06,28,00,22,20.00
2015,06,28,00,23,19.90
2015,06,28,00,24,19.90
2015,06,28,00,25,19.90
2015,06,28,00,26,19.90
2015,06,28,00,27,19.80
2015,06,28,00,28,19.80
2015,06,28,00,29,19.80
2015,06,28,00,30,19.80
2015,06,28,00,31,19.80
2015,06,28,00,32,19.70
2015,06,28,00,33,19.70
2015,06,28,00,34,19.70
2015,06,28,00,35,19.70
2015,06,28,00,36,19.60
2015,06,28,00,37,19.60
2015,06,28,00,38,19.50
2015,06,28,00,39,19.40
2015,06,28,00,40,19.40
2015,06,28,00,41,19.30
2015,06,28,00,42,19.30
2015,06,28,00,43,19.20
2015,06,28,00,44,19.10
2015,06,28,00,45,19.10
2015,06,28,00,46,19.00
2015,06,28,00,47,18.90
2015,06,28,00,48,18.80
2015,06,28,00,49,18.80
2015,06,28,00,50,18.70
2015,06,28,00,51,18.70
2015,06,28,00,52,18.60
2015,06,28,00,53,18.50
2015,06,28,00,54,18.50
2015,06,28,00,55,18.40
2015,06,28,00,56,18.40
2015,06,28,00,57,18.30
2015,06,28,00,58,18.30
2015,06,28,00,59,18.30
2015,06,28,01,00,18.30
2015,06,28,01,01,18.20
2015,06,28,01,02,18.20
2015,06,28,01,03,18.20
2015,06,28,01,04,18.10
2015,06,28,01,05,18.10
2015,06,28,01,06,18.10
2015,06,28,01,07,18.10
2015,06,28,01,08,18.00
2015,06,28,01,09,18.00
2015,06,28,01,10,17.90
2015,06,28,01,11,17.90
2015,06,28,01,12,17.90
2015,06,28,01,13,17.90
2015,06,28,01,14,17.90
2015,06,28,01,15,17.90
2015,06,28,01,16,17.90
2015,06,28,01,17,17.90
2015,06,28,01,18,17.90
2015,06,28,01,19,17.80
2015,06,28,01,20,17.80
2015,06,28,01,21,17.80
2015,06,28,01,22,17.80
2015,06,28,01,23,17.80
2015,06,28,01,24,17.80
2015,06,28,01,25,17.80
2015,06,28,01,26,17.90
2015,06,28,01,27,17.90
2015,06,28,01,28,17.90
2015,06,28,01,29,17.90
2015,06,28,01,30,17.90
2015,06,28,01,31,17.90
2015,06,28,01,32,17.90
2015,06,28,01,33,17.90
2015,06,28,01,34,18.00
2015,06,28,01,35,18.00
2015,06,28,01,36,18.00
2015,06,28,01,37,18.00
2015,06,28,01,38,18.00
2015,06,28,01,39,18.10
2015,06,28,01,40,18.10
2015,06,28,01,41,18.10
2015,06,28,01,42,18.10
2015,06,28,01,43,18.10
2015,06,28,01,44,18.10
2015,06,28,01,45,18.10
2015,06,28,01,46,18.10
2015,06,28,01,47,18.10
2015,06,28,01,48,18.10
2015,06,28,01,49,18.10
2015,06,28,01,50,18.10
2015,06,28,01,51,18.10
2015,06,28,01,52,18.10
2015,06,28,01,53,18.10
2015,06,28,01,54,18.10
2015,06,28,01,55,18.10
2015,06,28,01,56,18.10
2015,06,28,01,57,18.10
2015,06,28,01,58,18.10
2015,06,28,01,59,18.10
2015,06,28,02,00,18.10
2015,06,28,02,01,18.10
2015,06,28,02,02,18.10
2015,06,28,02,03,18.10
2015,06,28,02,04,18.10
2015,06,28,02,05,18.10
2015,06,28,02,06,18.00
2015,06,28,02,07,18.00
2015,06,28,02,08,18.00
2015,06,28,02,09,18.00
2015,06,28,02,10,18.00
2015,06,28,02,11,18.00
2015,06,28,02,12,17.90
2015,06,28,02,13,18.00
2015,06,28,02,14,17.90
2015,06,28,02,15,17.90
2015,06,28,02,16,17.90
2015,06,28,02,17,17.90
2015,06,28,02,18,17.90
2015,06,28,02,19,17.90
2015,06,28,02,20,17.90
2015,06,28,02,21,17.80
2015,06,28,02,22,17.80
2015,06,28,02,23,17.80
2015,06,28,02,24,17.80
2015,06,28,02,25,17.80
2015,06,28,02,26,17.80
2015,06,28,02,27,17.80
2015,06,28,02,28,17.80
2015,06,28,02,29,17.80
2015,06,28,02,30,17.80
2015,06,28,02,31,17.80
2015,06,28,02,32,17.70
2015,06,28,02,33,17.70
2015,06,28,02,34,17.70
2015,06,28,02,35,17.60
2015,06,28,02,36,17.60
2015,06,28,02,37,17.50
2015,06,28,02,38,17.50
2015,06,28,02,39,17.40
2015,06,28,02,40,17.40
2015,06,28,02,41,17.30
2015,06,28,02,42,17.30
2015,06,28,02,43,17.20
2015,06,28,02,44,17.20
2015,06,28,02,45,17.10
2015,06,28,02,46,17.10
2015,06,28,02,47,17.00
2015,06,28,02,48,17.00
2015,06,28,02,49,16.90
2015,06,28,02,50,16.90
2015,06,28,02,51,16.80
2015,06,28,02,52,16.80
2015,06,28,02,53,16.70
2015,06,28,02,54,16.70
2015,06,28,02,55,16.70
2015,06,28,02,56,16.60
2015,06,28,02,57,16.60
2015,06,28,02,58,16.60
2015,06,28,02,59,16.60
2015,06,28,03,00,16.50
2015,06,28,03,01,16.50
2015,06,28,03,02,16.40
2015,06,28,03,03,16.40
2015,06,28,03,04,16.40
2015,06,28,03,05,16.40
2015,06,28,03,06,16.40
2015,06,28,03,07,16.40
2015,06,28,03,08,16.30
2015,06,28,03,09,16.30
2015,06,28,03,10,16.30
2015,06,28,03,11,16.30
2015,06,28,03,12,16.30
2015,06,28,03,13,16.30
2015,06,28,03,14,16.30
2015,06,28,03,15,16.40
2015,06,28,03,16,16.40
2015,06,28,03,17,16.40
2015,06,28,03,18,16.40
2015,06,28,03,19,16.40
2015,06,28,03,20,16.40
2015,06,28,03,21,16.40
2015,06,28,03,22,16.40
2015,06,28,03,23,16.40
2015,06,28,03,24,16.40
2015,06,28,03,25,16.40
2015,06,28,03,26,16.40
2015,06,28,03,27,16.40
2015,06,28,03,28,16.50
2015,06,28,03,29,16.50
2015,06,28,03,30,16.50
2015,06,28,03,31,16.50
2015,06,28,03,32,16.50
2015,06,28,03,33,16.50
2015,06,28,03,34,16.50
2015,06,28,03,35,16.60
2015,06,28,03,36,16.60
2015,06,28,03,37,16.60
2015,06,28,03,38,16.60
2015,06,28,03,39,16.60
2015,06,28,03,40,16.60
2015,06,28,03,41,16.60
2015,06,28,03,42,16.60
2015,06,28,03,43,16.60
2015,06,28,03,44,16.60
2015,06,28,03,45,16.60
2015,06,28,03,46,16.60
2015,06,28,03,47,16.60
2015,06,28,03,48,16.60
2015,06,28,03,49,16.60
2015,06,28,03,50,16.60
2015,06,28,03,51,16.60
2015,06,28,03,52,16.60
2015,06,28,03,53,16.60
2015,06,28,03,54,16.60
2015,06,28,03,55,16.60
2015,06,28,03,56,16.60
2015,06,28,03,57,16.60
2015,06,28,03,58,16.60
2015,06,28,03,59,16.60
2015,06,28,04,00,16.60
2015,06,28,04,01,16.60
2015,06,28,04,02,16.60
2015,06,28,04,03,16.50
2015,06,28,04,04,16.50
2015,06,28,04,05,16.50
2015,06,28,04,06,16.50
2015,06,28,04,07,16.50
2015,06,28,04,08,16.50
2015,06,28,04,09,16.50
2015,06,28,04,10,16.50
2015,06,28,04,11,16.40
2015,06,28,04,12,16.40
2015,06,28,04,13,16.40
2015,06,28,04,14,16.40
2015,06,28,04,15,16.40
2015,06,28,04,16,16.40
2015,06,28,04,17,16.40
2015,06,28,04,18,16.40
2015,06,28,04,19,16.40
2015,06,28,04,20,16.40
2015,06,28,04,21,16.40
2015,06,28,04,22,16.40
2015,06,28,04,23,16.30
2015,06,28,04,24,16.30
2015,06,28,04,25,16.30
2015,06,28,04,26,16.30
2015,06,28,04,27,16.30
2015,06,28,04,28,16.30
2015,06,28,04,29,16.30
2015,06,28,04,30,16.30
2015,06,28,04,31,16.30
2015,06,28,04,32,16.30
2015,06,28,04,33,16.30
2015,06,28,04,34,16.30
2015,06,28,04,35,16.30
2015,06,28,04,36,16.30
2015,06,28,04,37,16.30
2015,06,28,04,38,16.20
2015,06,28,04,39,16.20
2015,06,28,04,40,16.20
2015,06,28,04,41,16.20
2015,06,28,04,42,16.20
2015,06,28,04,43,16.20
2015,06,28,04,44,16.20
2015,06,28,04,45,16.20
2015,06,28,04,46,16.20
2015,06,28,04,47,16.20
2015,06,28,04,48,16.20
2015,06,28,04,49,16.10
2015,06,28,04,50,16.10
2015,06,28,04,51,16.10
2015,06,28,04,52,16.10
2015,06,28,04,53,16.10
2015,06,28,04,54,16.10
2015,06,28,04,55,16.10
2015,06,28,04,56,16.00
2015,06,28,04,57,16.00
2015,06,28,04,58,16.00
2015,06,28,04,59,16.00
2015,06,28,05,00,16.00
2015,06,28,05,01,16.00
2015,06,28,05,02,16.00
2015,06,28,05,03,15.90
2015,06,28,05,04,15.90
2015,06,28,05,05,15.90
2015,06,28,05,06,15.90
2015,06,28,05,07,15.90
2015,06,28,05,08,15.90
2015,06,28,05,09,15.90
2015,06,28,05,10,15.90
2015,06,28,05,11,15.90
2015,06,28,05,12,15.90
2015,06,28,05,13,15.90
2015,06,28,05,14,15.80
2015,06,28,05,15,15.80
2015,06,28,05,16,15.80
2015,06,28,05,17,15.80
2015,06,28,05,18,15.80
2015,06,28,05,19,15.80
2015,06,28,05,20,15.80
2015,06,28,05,21,15.80
2015,06,28,05,22,15.80
2015,06,28,05,23,15.80
2015,06,28,05,24,15.80
2015,06,28,05,25,15.80
2015,06,28,05,26,15.80
2015,06,28,05,27,15.80
2015,06,28,05,28,15.70
2015,06,28,05,29,15.70
2015,06,28,05,30,15.70
2015,06,28,05,31,15.70
2015,06,28,05,32,15.70
2015,06,28,05,33,15.70
2015,06,28,05,34,15.70
2015,06,28,05,35,15.70
2015,06,28,05,36,15.70
2015,06,28,05,37,15.70
2015,06,28,05,38,15.70
2015,06,28,05,39,15.70
2015,06,28,05,40,15.70
2015,06,28,05,41,15.60
2015,06,28,05,42,15.60
2015,06,28,05,43,15.60
2015,06,28,05,44,15.60
2015,06,28,05,45,15.60
2015,06,28,05,46,15.60
2015,06,28,05,47,15.60
2015,06,28,05,48,15.60
2015,06,28,05,49,15.60
2015,06,28,05,50,15.60
2015,06,28,05,51,15.60
2015,06,28,05,52,15.60
2015,06,28,05,53,15.70
2015,06,28,05,54,15.70
2015,06,28,05,55,15.70
2015,06,28,05,56,15.70
2015,06,28,05,57,15.70
2015,06,28,05,58,15.70
2015,06,28,05,59,15.70
2015,06,28,06,00,15.70
2015,06,28,06,01,15.70
2015,06,28,06,02,15.80
2015,06,28,06,03,15.80
2015,06,28,06,04,15.80
2015,06,28,06,05,15.80
2015,06,28,06,06,15.80
2015,06,28,06,07,15.80
2015,06,28,06,08,15.80
2015,06,28,06,09,15.80
2015,06,28,06,10,15.80
2015,06,28,06,11,15.90
2015,06,28,06,12,15.90
2015,06,28,06,13,15.90
2015,06,28,06,14,15.90
2015,06,28,06,15,16.00
2015,06,28,06,16,16.00
2015,06,28,06,17,16.00
2015,06,28,06,18,16.10
2015,06,28,06,19,16.10
2015,06,28,06,20,16.10
2015,06,28,06,21,16.20
2015,06,28,06,22,16.20
2015,06,28,06,23,16.30
2015,06,28,06,24,16.30
2015,06,28,06,25,16.40
2015,06,28,06,26,16.40
2015,06,28,06,27,16.50
2015,06,28,06,28,16.50
2015,06,28,06,29,16.60
2015,06,28,06,30,16.60
2015,06,28,06,31,16.70
2015,06,28,06,32,16.70
2015,06,28,06,33,16.80
2015,06,28,06,34,16.80
2015,06,28,06,35,16.90
2015,06,28,06,36,16.90
2015,06,28,06,37,17.00
2015,06,28,06,38,17.10
2015,06,28,06,39,17.10
2015,06,28,06,40,17.20
2015,06,28,06,41,17.20
2015,06,28,06,42,17.20
2015,06,28,06,43,17.20
2015,06,28,06,44,17.20
2015,06,28,06,45,17.20
2015,06,28,06,46,17.20
2015,06,28,06,47,17.20
2015,06,28,06,48,17.20
2015,06,28,06,49,17.20
2015,06,28,06,50,17.20
2015,06,28,06,51,17.20
2015,06,28,06,52,17.20
2015,06,28,06,53,17.10
2015,06,28,06,54,17.10
2015,06,28,06,55,17.10
2015,06,28,06,56,17.10
2015,06,28,06,57,17.10
2015,06,28,06,58,17.10
2015,06,28,06,59,17.10
2015,06,28,07,00,17.00
2015,06,28,07,01,17.00
2015,06,28,07,02,17.00
2015,06,28,07,03,17.00
2015,06,28,07,04,17.00
2015,06,28,07,05,17.00
2015,06,28,07,06,17.00
2015,06,28,07,07,16.90
2015,06,28,07,08,16.90
2015,06,28,07,09,16.90
2015,06,28,07,10,16.90
2015,06,28,07,11,16.90
2015,06,28,07,12,16.90
2015,06,28,07,13,16.90
2015,06,28,07,14,16.90
2015,06,28,07,15,16.90
2015,06,28,07,16,16.90
2015,06,28,07,17,17.00
2015,06,28,07,18,17.00
2015,06,28,07,19,17.00
2015,06,28,07,20,17.00
2015,06,28,07,21,17.00
2015,06,28,07,22,17.10
2015,06,28,07,23,17.10
2015,06,28,07,24,17.10
2015,06,28,07,25,17.10
2015,06,28,07,26,17.20
2015,06,28,07,27,17.20
2015,06,28,07,28,17.20
2015,06,28,07,29,17.30
2015,06,28,07,30,17.30
2015,06,28,07,31,17.40
2015,06,28,07,32,17.50
2015,06,28,07,33,17.60
2015,06,28,07,34,17.70
2015,06,28,07,35,17.80
2015,06,28,07,36,17.90
2015,06,28,07,37,18.00
2015,06,28,07,38,18.10
2015,06,28,07,39,18.20
2015,06,28,07,40,18.30
2015,06,28,07,41,18.40
2015,06,28,07,42,18.50
2015,06,28,07,43,18.50
2015,06,28,07,44,18.50
2015,06,28,07,45,18.50
2015,06,28,07,46,18.50
2015,06,28,07,47,18.50
2015,06,28,07,48,18.50
2015,06,28,07,49,18.40
2015,06,28,07,50,18.40
2015,06,28,07,51,18.40
2015,06,28,07,52,18.40
2015,06,28,07,53,18.30
2015,06,28,07,54,18.30
2015,06,28,07,55,18.20
2015,06,28,07,56,18.20
2015,06,28,07,57,18.20
2015,06,28,07,58,18.10
2015,06,28,07,59,18.10
2015,06,28,08,00,18.10
2015,06,28,08,01,18.10
2015,06,28,08,02,18.10
2015,06,28,08,03,18.10
2015,06,28,08,04,18.10
2015,06,28,08,05,18.10
2015,06,28,08,06,18.10
2015,06,28,08,07,18.10
2015,06,28,08,08,18.10
2015,06,28,08,09,18.20
2015,06,28,08,10,18.20
2015,06,28,08,11,18.30
2015,06,28,08,12,18.30
2015,06,28,08,13,18.40
2015,06,28,08,14,18.50
2015,06,28,08,15,18.60
2015,06,28,08,16,18.70
2015,06,28,08,17,18.80
2015,06,28,08,18,18.90
2015,06,28,08,19,19.00
2015,06,28,08,20,19.10
2015,06,28,08,21,19.20
2015,06,28,08,22,19.30
2015,06,28,08,23,19.40
2015,06,28,08,24,19.50
2015,06,28,08,25,19.70
2015,06,28,08,26,19.90
2015,06,28,08,27,20.00
2015,06,28,08,28,20.20
2015,06,28,08,29,20.40
2015,06,28,08,30,20.60
2015,06,28,08,31,20.80
2015,06,28,08,32,21.00
2015,06,28,08,33,21.20
2015,06,28,08,34,21.40
2015,06,28,08,35,21.70
2015,06,28,08,36,21.90
2015,06,28,08,37,22.10
2015,06,28,08,38,22.30
2015,06,28,08,39,22.50
2015,06,28,08,40,22.70
2015,06,28,08,41,22.80
2015,06,28,08,42,23.00
2015,06,28,08,43,23.10
2015,06,28,08,44,23.30
2015,06,28,08,45,23.40
2015,06,28,08,46,23.60
2015,06,28,08,47,23.70
2015,06,28,08,48,23.80
2015,06,28,08,49,23.90
2015,06,28,08,50,24.10
2015,06,28,08,51,24.20
2015,06,28,08,52,24.30
2015,06,28,08,53,24.40
2015,06,28,08,54,24.40
2015,06,28,08,55,24.40
2015,06,28,08,56,24.40
2015,06,28,08,57,24.40
2015,06,28,08,58,24.40
2015,06,28,08,59,24.50
2015,06,28,09,00,24.50
2015,06,28,09,01,24.60
2015,06,28,09,02,24.70
2015,06,28,09,03,24.70
2015,06,28,09,04,24.80
2015,06,28,09,05,24.90
2015,06,28,09,06,25.00
2015,06,28,09,07,25.10
2015,06,28,09,08,25.20
2015,06,28,09,09,25.20
2015,06,28,09,10,25.30
2015,06,28,09,11,25.40
2015,06,28,09,12,25.50
2015,06,28,09,13,25.50
2015,06,28,09,14,25.60
2015,06,28,09,15,25.70
2015,06,28,09,16,25.70
2015,06,28,09,17,25.80
2015,06,28,09,18,25.80
2015,06,28,09,19,25.90
2015,06,28,09,20,25.90
2015,06,28,09,21,26.00
2015,06,28,09,22,26.00
2015,06,28,09,23,26.00
2015,06,28,09,24,26.10
2015,06,28,09,25,26.10
2015,06,28,09,26,26.10
2015,06,28,09,27,26.10
2015,06,28,09,28,26.20
2015,06,28,09,29,26.20
2015,06,28,09,30,26.20
2015,06,28,09,31,26.20
2015,06,28,09,32,26.20
2015,06,28,09,33,26.20
2015,06,28,09,34,26.20
2015,06,28,09,35,26.20
2015,06,28,09,36,26.20
2015,06,28,09,37,26.20
2015,06,28,09,38,26.20
2015,06,28,09,39,26.20
2015,06,28,09,40,26.20
2015,06,28,09,41,26.20
2015,06,28,09,42,26.20
2015,06,28,09,43,26.10
2015,06,28,09,44,25.90
2015,06,28,09,45,25.70
2015,06,28,09,46,25.60
2015,06,28,09,47,25.40
2015,06,28,09,48,25.30
2015,06,28,09,49,25.10
2015,06,28,09,50,25.00
2015,06,28,09,51,24.90
2015,06,28,09,52,24.80
2015,06,28,09,53,24.60
2015,06,28,09,54,24.40
2015,06,28,09,55,24.20
2015,06,28,09,56,24.10
2015,06,28,09,57,23.90
2015,06,28,09,58,23.80
2015,06,28,09,59,23.60
2015,06,28,10,00,23.50
2015,06,28,10,01,23.40
2015,06,28,10,02,23.20
2015,06,28,10,03,23.10
2015,06,28,10,04,22.90
2015,06,28,10,05,22.80
2015,06,28,10,06,22.60
2015,06,28,10,07,22.50
2015,06,28,10,08,22.40
2015,06,28,10,09,22.30
2015,06,28,10,10,22.20
2015,06,28,10,11,22.10
2015,06,28,10,12,22.00
2015,06,28,10,13,21.90
2015,06,28,10,14,21.90
2015,06,28,10,15,21.80
2015,06,28,10,16,21.80
2015,06,28,10,17,21.70
2015,06,28,10,18,21.70
2015,06,28,10,19,21.70
2015,06,28,10,20,21.70
2015,06,28,10,21,21.60
2015,06,28,10,22,21.60
2015,06,28,10,23,21.60
2015,06,28,10,24,21.60
2015,06,28,10,25,21.60
2015,06,28,10,26,21.60
2015,06,28,10,27,21.60
2015,06,28,10,28,21.60
2015,06,28,10,29,21.60
2015,06,28,10,30,21.60
2015,06,28,10,31,21.60
2015,06,28,10,32,21.60
2015,06,28,10,33,21.60
2015,06,28,10,34,21.60
2015,06,28,10,35,21.60
2015,06,28,10,36,21.50
2015,06,28,10,37,21.50
2015,06,28,10,38,21.50
2015,06,28,10,39,21.50
2015,06,28,10,40,21.50
2015,06,28,10,41,21.50
2015,06,28,10,42,21.50
2015,06,28,10,43,21.50
2015,06,28,10,44,21.50
2015,06,28,10,45,21.50
2015,06,28,10,46,21.40
2015,06,28,10,47,21.40
2015,06,28,10,48,21.40
2015,06,28,10,49,21.40
2015,06,28,10,50,21.30
2015,06,28,10,51,21.30
2015,06,28,10,52,21.30
2015,06,28,10,53,21.30
2015,06,28,10,54,21.30
2015,06,28,10,55,21.30
2015,06,28,10,56,21.30
2015,06,28,10,57,21.30
2015,06,28,10,58,21.30
2015,06,28,10,59,21.30
2015,06,28,11,00,21.30
2015,06,28,11,01,21.30
2015,06,28,11,02,21.30
2015,06,28,11,03,21.30
2015,06,28,11,04,21.30
2015,06,28,11,05,21.30
2015,06,28,11,06,21.30
2015,06,28,11,07,21.30
2015,06,28,11,08,21.30
2015,06,28,11,09,21.30
2015,06,28,11,10,21.30
2015,06,28,11,11,21.30
2015,06,28,11,12,21.30
2015,06,28,11,13,21.20
2015,06,28,11,14,21.20
2015,06,28,11,15,21.20
2015,06,28,11,16,21.20
2015,06,28,11,17,21.30
2015,06,28,11,18,21.30
2015,06,28,11,19,21.30
2015,06,28,11,20,21.30
2015,06,28,11,21,21.30
2015,06,28,11,22,21.30
2015,06,28,11,23,21.30
2015,06,28,11,24,21.30
2015,06,28,11,25,21.30
2015,06,28,11,26,21.40
2015,06,28,11,27,21.40
2015,06,28,11,28,21.50
2015,06,28,11,29,21.50
2015,06,28,11,30,21.60
2015,06,28,11,31,21.60
2015,06,28,11,32,21.70
2015,06,28,11,33,21.80
2015,06,28,11,34,21.80
2015,06,28,11,35,21.80
2015,06,28,11,36,21.90
2015,06,28,11,37,22.00
2015,06,28,11,38,22.00
2015,06,28,11,39,22.10
2015,06,28,11,40,22.20
2015,06,28,11,41,22.30
2015,06,28,11,42,22.30
2015,06,28,11,43,22.40
2015,06,28,11,44,22.50
2015,06,28,11,45,22.60
2015,06,28,11,46,22.60
2015,06,28,11,47,22.70
2015,06,28,11,48,22.80
2015,06,28,11,49,22.80
2015,06,28,11,50,22.90
2015,06,28,11,51,22.90
2015,06,28,11,52,23.00
2015,06,28,11,53,23.00
2015,06,28,11,54,23.10
2015,06,28,11,55,23.10
2015,06,28,11,56,23.20
2015,06,28,11,57,23.20
2015,06,28,11,58,23.20
2015,06,28,11,59,23.30
2015,06,28,12,00,23.30
2015,06,28,12,01,23.40
2015,06,28,12,02,23.40
2015,06,28,12,03,23.40
2015,06,28,12,04,23.50
2015,06,28,12,05,23.50
2015,06,28,12,06,23.50
2015,06,28,12,07,23.60
2015,06,28,12,08,23.60
2015,06,28,12,09,23.60
2015,06,28,12,10,23.60
2015,06,28,12,11,23.60
2015,06,28,12,12,23.60
2015,06,28,12,13,23.60
2015,06,28,12,14,23.60
2015,06,28,12,15,23.60
2015,06,28,12,16,23.60
2015,06,28,12,17,23.60
2015,06,28,12,18,23.70
2015,06,28,12,19,23.70
2015,06,28,12,20,23.70
2015,06,28,12,21,23.70
2015,06,28,12,22,23.70
2015,06,28,12,23,23.70
2015,06,28,12,24,23.80
2015,06,28,12,25,23.80
2015,06,28,12,26,23.80
2015,06,28,12,27,23.80
2015,06,28,12,28,23.80
2015,06,28,12,29,23.80
2015,06,28,12,30,23.80
2015,06,28,12,31,23.80
2015,06,28,12,32,23.80
2015,06,28,12,33,23.80
2015,06,28,12,34,23.80
2015,06,28,12,35,23.80
2015,06,28,12,36,23.80
2015,06,28,12,37,23.80
2015,06,28,12,38,23.80
2015,06,28,12,39,23.80
2015,06,28,12,40,23.80
2015,06,28,12,41,23.90
2015,06,28,12,42,23.90
2015,06,28,12,43,23.90
2015,06,28,12,44,24.00
2015,06,28,12,45,24.00
2015,06,28,12,46,24.00
2015,06,28,12,47,24.10
2015,06,28,12,48,24.10
2015,06,28,12,49,24.10
2015,06,28,12,50,24.10
2015,06,28,12,51,24.10
2015,06,28,12,52,24.10
2015,06,28,12,53,24.10
2015,06,28,12,54,24.00
2015,06,28,12,55,24.00
2015,06,28,12,56,24.00
2015,06,28,12,57,24.00
2015,06,28,12,58,24.00
2015,06,28,12,59,23.90
2015,06,28,13,00,23.90
2015,06,28,13,01,23.90
2015,06,28,13,02,23.80
2015,06,28,13,03,23.80
2015,06,28,13,04,23.80
2015,06,28,13,05,23.80
2015,06,28,13,06,23.70
2015,06,28,13,07,23.70
2015,06,28,13,08,23.60
2015,06,28,13,09,23.60
2015,06,28,13,10,23.60
2015,06,28,13,11,23.60
2015,06,28,13,12,23.60
2015,06,28,13,13,23.50
2015,06,28,13,14,23.50
2015,06,28,13,15,23.40
2015,06,28,13,16,23.40
2015,06,28,13,17,23.40
2015,06,28,13,18,23.40
2015,06,28,13,19,23.40
2015,06,28,13,20,23.40
2015,06,28,13,21,23.40
2015,06,28,13,22,23.40
2015,06,28,13,23,23.40
2015,06,28,13,24,23.40
2015,06,28,13,25,23.40
2015,06,28,13,26,23.40
2015,06,28,13,27,23.40
2015,06,28,13,28,23.40
2015,06,28,13,29,23.40
2015,06,28,13,30,23.40
2015,06,28,13,31,23.30
2015,06,28,13,32,23.30
2015,06,28,13,33,23.30
2015,06,28,13,34,23.30
2015,06,28,13,35,23.30
2015,06,28,13,36,23.40
2015,06,28,13,37,23.40
2015,06,28,13,38,23.40
2015,06,28,13,39,23.40
2015,06,28,13,40,23.40
2015,06,28,13,41,23.50
2015,06,28,13,42,23.50
2015,06,28,13,43,23.60
2015,06,28,13,44,23.60
2015,06,28,13,45,23.60
2015,06,28,13,46,23.70
2015,06,28,13,47,23.70
2015,06,28,13,48,23.70
2015,06,28,13,49,23.70
2015,06,28,13,50,23.80
2015,06,28,13,51,23.80
2015,06,28,13,52,23.80
2015,06,28,13,53,23.90
2015,06,28,13,54,23.90
2015,06,28,13,55,23.90
2015,06,28,13,56,23.90
2015,06,28,13,57,24.00
2015,06,28,13,58,24.00
2015,06,28,13,59,24.10
2015,06,28,14,00,24.10
2015,06,28,14,01,24.20
2015,06,28,14,02,24.20
2015,06,28,14,03,24.20
2015,06,28,14,04,24.20
2015,06,28,14,05,24.30
2015,06,28,14,06,24.30
2015,06,28,14,07,24.30
2015,06,28,14,08,24.30
2015,06,28,14,09,24.30
2015,06,28,14,10,24.30
2015,06,28,14,11,24.40
2015,06,28,14,12,24.40
2015,06,28,14,13,24.40
2015,06,28,14,14,24.40
2015,06,28,14,15,24.50
2015,06,28,14,16,24.50
2015,06,28,14,17,24.60
2015,06,28,14,18,24.60
2015,06,28,14,19,24.60
2015,06,28,14,20,24.60
2015,06,28,14,21,24.60
2015,06,28,14,22,24.60
2015,06,28,14,23,24.60
2015,06,28,14,24,24.60
2015,06,28,14,25,24.60
2015,06,28,14,26,24.60
2015,06,28,14,27,24.60
2015,06,28,14,28,24.70
2015,06,28,14,29,24.60
2015,06,28,14,30,24.70
2015,06,28,14,31,24.70
2015,06,28,14,32,24.70
2015,06,28,14,33,24.60
2015,06,28,14,34,24.70
2015,06,28,14,35,24.70
2015,06,28,14,36,24.70
2015,06,28,14,37,24.70
2015,06,28,14,38,24.70
2015,06,28,14,39,24.60
2015,06,28,14,40,24.60
2015,06,28,14,41,24.60
2015,06,28,14,42,24.50
2015,06,28,14,43,24.50
2015,06,28,14,44,24.40
2015,06,28,14,45,24.40
2015,06,28,14,46,24.30
2015,06,28,14,47,24.20
2015,06,28,14,48,24.10
2015,06,28,14,49,24.00
2015,06,28,14,50,23.90
2015,06,28,14,51,23.80
2015,06,28,14,52,23.70
2015,06,28,14,53,23.60
2015,06,28,14,54,23.50
2015,06,28,14,55,23.40
2015,06,28,14,56,23.30
2015,06,28,14,57,23.30
2015,06,28,14,58,23.20
2015,06,28,14,59,23.10
2015,06,28,15,00,23.00
2015,06,28,15,01,22.80
2015,06,28,15,02,22.70
2015,06,28,15,03,22.50
2015,06,28,15,04,22.40
2015,06,28,15,05,22.10
2015,06,28,15,06,21.80
2015,06,28,15,07,21.50
2015,06,28,15,08,21.30
2015,06,28,15,09,21.10
2015,06,28,15,10,20.80
2015,06,28,15,11,20.60
2015,06,28,15,12,20.40
2015,06,28,15,13,20.30
2015,06,28,15,14,20.10
2015,06,28,15,15,19.90
2015,06,28,15,16,19.80
2015,06,28,15,17,19.60
2015,06,28,15,18,19.50
2015,06,28,15,19,19.40
2015,06,28,15,20,19.20
2015,06,28,15,21,19.10
2015,06,28,15,22,19.00
2015,06,28,15,23,18.90
2015,06,28,15,24,18.80
2015,06,28,15,25,18.80
2015,06,28,15,26,18.70
2015,06,28,15,27,18.70
2015,06,28,15,28,18.60
2015,06,28,15,29,18.60
2015,06,28,15,30,18.50
2015,06,28,15,31,18.50
2015,06,28,15,32,18.50
2015,06,28,15,33,18.50
2015,06,28,15,34,18.50
2015,06,28,15,35,18.50
2015,06,28,15,36,18.50
2015,06,28,15,37,18.50
2015,06,28,15,38,18.50
2015,06,28,15,39,18.50
2015,06,28,15,40,18.50
2015,06,28,15,41,18.50
2015,06,28,15,42,18.50
2015,06,28,15,43,18.60
2015,06,28,15,44,18.60
2015,06,28,15,45,18.60
2015,06,28,15,46,18.70
2015,06,28,15,47,18.80
2015,06,28,15,48,18.80
2015,06,28,15,49,18.90
2015,06,28,15,50,19.00
2015,06,28,15,51,19.10
2015,06,28,15,52,19.20
2015,06,28,15,53,19.20
2015,06,28,15,54,19.30
2015,06,28,15,55,19.40
2015,06,28,15,56,19.40
2015,06,28,15,57,19.40
2015,06,28,15,58,19.40
2015,06,28,15,59,19.50
2015,06,28,16,00,19.50
2015,06,28,16,01,19.60
2015,06,28,16,02,19.60
2015,06,28,16,03,19.60
2015,06,28,16,04,19.60
2015,06,28,16,05,19.70
2015,06,28,16,06,19.70
2015,06,28,16,07,19.70
2015,06,28,16,08,19.70
2015,06,28,16,09,19.80
2015,06,28,16,10,19.80
2015,06,28,16,11,19.80
2015,06,28,16,12,19.80
2015,06,28,16,13,19.80
2015,06,28,16,14,19.90
2015,06,28,16,15,19.90
2015,06,28,16,16,19.90
2015,06,28,16,17,20.00
2015,06,28,16,18,20.00
2015,06,28,16,19,20.10
2015,06,28,16,20,20.10
2015,06,28,16,21,20.10
2015,06,28,16,22,20.10
2015,06,28,16,23,20.20
2015,06,28,16,24,20.20
2015,06,28,16,25,20.20
2015,06,28,16,26,20.20
2015,06,28,16,27,20.20
2015,06,28,16,28,20.20
2015,06,28,16,29,20.30
2015,06,28,16,30,20.30
2015,06,28,16,31,20.30
2015,06,28,16,32,20.30
2015,06,28,16,33,20.30
2015,06,28,16,34,20.40
2015,06,28,16,35,20.40
2015,06,28,16,36,20.40
2015,06,28,16,37,20.40
2015,06,28,16,38,20.50
2015,06,28,16,39,20.50
2015,06,28,16,40,20.60
2015,06,28,16,41,20.60
2015,06,28,16,42,20.70
2015,06,28,16,43,20.70
2015,06,28,16,44,20.70
2015,06,28,16,45,20.80
2015,06,28,16,46,20.80
2015,06,28,16,47,20.90
2015,06,28,16,48,20.90
2015,06,28,16,49,21.00
2015,06,28,16,50,21.00
2015,06,28,16,51,21.10
2015,06,28,16,52,21.10
2015,06,28,16,53,21.20
2015,06,28,16,54,21.30
2015,06,28,16,55,21.30
2015,06,28,16,56,21.40
2015,06,28,16,57,21.40
2015,06,28,16,58,21.40
2015,06,28,16,59,21.50
2015,06,28,17,00,21.50
2015,06,28,17,01,21.60
2015,06,28,17,02,21.60
2015,06,28,17,03,21.60
2015,06,28,17,04,21.70
2015,06,28,17,05,21.70
2015,06,28,17,06,21.70
2015,06,28,17,07,21.70
2015,06,28,17,08,21.70
2015,06,28,17,09,21.70
2015,06,28,17,10,21.70
2015,06,28,17,11,21.70
2015,06,28,17,12,21.70
2015,06,28,17,13,21.80
2015,06,28,17,14,21.80
2015,06,28,17,15,21.80
2015,06,28,17,16,21.80
2015,06,28,17,17,21.80
2015,06,28,17,18,21.80
2015,06,28,17,19,21.80